Location: 22
(39.7117°N, 89.5929°W)
Time: 09:52:55
(UTC-05:00)

S-56A Canister/Altair - Pass Details

Date: 15 February 2023
Orbit: 638 x 2493 km, 38.9° (Epoch: 25 March)

Event Time Altitude Azimuth Distance (km) Brightness Sun altitude
Rises 07:06:33 0° 241° (WSW) 3,897 10.7 2.0°
Reaches altitude 10° 07:09:43 10° 237° (WSW) 2,683 10.0 2.6°
Maximum altitude 07:15:33 52° 162° (SSE) 936 8.4 3.7°
Drops below altitude 10° 07:20:04 10° 86° (E) 2,082 11.2 4.5°
Sets 07:22:15 0° 81° (E) 2,945 11.7 4.9°
